| time (UTC) | temp F | wind direction | speed MPH | gust MPH | rain 1hr in | rain 24hr in | rain mn in | humidity % | barometer mb |
| 20260505090055 | 63 | 72 | 1.0 | 2.0 | 0.00 | 0.03 | 0.00 | 69 | 1009.7 |
| 20260505084546 | 63 | 66 | 1.0 | 3.0 | 0.00 | 0.03 | 0.00 | 68 | 1009.3 |
| 20260505083102 | 63 | 91 | 1.0 | 4.0 | 0.00 | 0.03 | 0.00 | 69 | 1009.2 |
| 20260505081544 | 63 | 68 | 1.0 | 2.0 | 0.00 | 0.03 | 0.00 | 69 | 1009.0 |
| 20260505080045 | 64 | 70 | 1.0 | 3.0 | 0.00 | 0.03 | 0.00 | 67 | 1008.9 |
| 20260505074543 | 64 | 68 | 1.0 | 3.0 | 0.00 | 0.03 | 0.00 | 66 | 1008.9 |
| 20260505073050 | 65 | 68 | 2.0 | 3.0 | 0.00 | 0.03 | 0.00 | 66 | 1008.8 |
| 20260505071546 | 65 | 82 | 1.0 | 3.0 | 0.00 | 0.03 | 0.00 | 65 | 1008.7 |
| 20260505070101 | 65 | 51 | 2.0 | 3.0 | 0.00 | 0.03 | 0.00 | 65 | 1008.7 |
| 20260505064553 | 65 | 93 | 2.0 | 4.0 | 0.00 | 0.03 | 0.00 | 64 | 1008.7 |
| 20260505063043 | 65 | 91 | 2.0 | 5.0 | 0.00 | 0.03 | 0.00 | 64 | 1008.6 |
| 20260505061609 | 65 | 78 | 2.0 | 3.0 | 0.00 | 0.03 | 0.00 | 65 | 1008.7 |
| 20260505060053 | 64 | 85 | 1.0 | 3.0 | 0.00 | 0.03 | 0.00 | 66 | 1008.7 |
| 20260505054551 | 64 | 63 | 1.0 | 3.0 | 0.00 | 0.03 | 0.00 | 68 | 1008.6 |
| 20260505053046 | 64 | 62 | 1.0 | 2.0 | 0.00 | 0.03 | 0.00 | 69 | 1008.7 |
| 20260505051547 | 64 | 0 | 0.0 | 2.0 | 0.00 | 0.03 | 0.00 | 68 | 1008.5 |
| 20260505041544 | 66 | 80 | 1.0 | 2.0 | 0.00 | 0.03 | 0.00 | 65 | 1008.9 |
| 20260505040058 | 66 | 0 | 0.0 | 0.0 | 0.00 | 0.03 | 0.00 | 64 | 1009.0 |
| 20260505034546 | 65 | 0 | 0.0 | 0.0 | 0.00 | 0.03 | 0.03 | 66 | 1009.0 |
| 20260505033045 | 65 | 0 | 0.0 | 0.0 | 0.00 | 0.03 | 0.03 | 70 | 1008.9 |
| 20260505031551 | 65 | 0 | 0.0 | 0.0 | 0.00 | 0.03 | 0.03 | 67 | 1008.8 |
| 20260505030044 | 64 | 0 | 0.0 | 0.0 | 0.00 | 0.03 | 0.03 | 71 | 1008.6 |
| 20260505024541 | 65 | 0 | 0.0 | 0.0 | 0.00 | 0.03 | 0.03 | 70 | 1008.4 |
| 20260505023041 | 65 | 0 | 0.0 | 0.0 | 0.00 | 0.03 | 0.03 | 70 | 1008.1 |
| 20260505021546 | 65 | 0 | 0.0 | 0.0 | 0.00 | 0.03 | 0.03 | 69 | 1007.9 |
| 20260505020045 | 65 | 0 | 0.0 | 0.0 | 0.00 | 0.03 | 0.03 | 70 | 1007.5 |
| 20260505014546 | 66 | 0 | 0.0 | 0.0 | 0.00 | 0.03 | 0.03 | 69 | 1007.3 |
| 20260505013041 | 67 | 0 | 0.0 | 0.0 | 0.00 | 0.03 | 0.03 | 65 | 1007.1 |
| 20260505011545 | 67 | 0 | 0.0 | 0.0 | 0.00 | 0.03 | 0.03 | 66 | 1006.9 |
| 20260505010058 | 68 | 0 | 0.0 | 0.0 | 0.00 | 0.03 | 0.03 | 65 | 1007.0 |
| 20260505004547 | 69 | 0 | 0.0 | 1.0 | 0.00 | 0.03 | 0.03 | 66 | 1007.0 |
| 20260505003044 | 70 | 0 | 0.0 | 6.0 | 0.00 | 0.03 | 0.03 | 61 | 1007.1 |
| 20260505001543 | 70 | 89 | 0.0 | 2.0 | 0.00 | 0.03 | 0.03 | 60 | 1007.1 |
| 20260505000054 | 71 | 0 | 0.0 | 3.0 | 0.00 | 0.03 | 0.03 | 58 | 1007.1 |
| 20260504234555 | 72 | 83 | 1.0 | 4.0 | 0.00 | 0.03 | 0.03 | 57 | 1007.2 |
| 20260504233047 | 72 | 103 | 0.0 | 3.0 | 0.00 | 0.03 | 0.03 | 57 | 1007.4 |
| 20260504231545 | 73 | 78 | 1.0 | 3.0 | 0.00 | 0.03 | 0.03 | 54 | 1007.7 |
| 20260504230046 | 74 | 72 | 2.0 | 4.0 | 0.00 | 0.03 | 0.03 | 51 | 1008.1 |
| 20260504224544 | 75 | 95 | 2.0 | 5.0 | 0.00 | 0.03 | 0.03 | 51 | 1008.4 |
| 20260504223043 | 75 | 92 | 4.0 | 7.0 | 0.00 | 0.03 | 0.03 | 50 | 1008.5 |
| 20260504221548 | 76 | 101 | 4.0 | 6.0 | 0.00 | 0.03 | 0.03 | 49 | 1008.4 |
| 20260504220056 | 76 | 68 | 2.0 | 5.0 | 0.00 | 0.03 | 0.03 | 56 | 1008.6 |
| 20260504214551 | 75 | 44 | 2.0 | 3.0 | 0.00 | 0.03 | 0.03 | 56 | 1008.7 |
| 20260504213107 | 75 | 42 | 1.0 | 4.0 | 0.00 | 0.03 | 0.03 | 56 | 1008.7 |
| 20260504211549 | 75 | 78 | 2.0 | 5.0 | 0.00 | 0.03 | 0.03 | 54 | 1009.0 |
| 20260504210050 | 75 | 82 | 3.0 | 6.0 | 0.00 | 0.03 | 0.03 | 53 | 1009.2 |
| 20260504204550 | 76 | 90 | 2.0 | 5.0 | 0.00 | 0.03 | 0.03 | 52 | 1009.2 |
| 20260504203048 | 76 | 80 | 3.0 | 5.0 | 0.00 | 0.03 | 0.03 | 51 | 1009.0 |
| 20260504201544 | 77 | 92 | 3.0 | 7.0 | 0.00 | 0.03 | 0.03 | 50 | 1008.8 |
| 20260504200041 | 76 | 83 | 2.0 | 4.0 | 0.00 | 0.03 | 0.03 | 53 | 1009.2 |
| 20260504194547 | 77 | 77 | 3.0 | 6.0 | 0.00 | 0.03 | 0.03 | 50 | 1009.3 |
| 20260504193059 | 77 | 91 | 2.0 | 4.0 | 0.00 | 0.03 | 0.03 | 52 | 1009.5 |
| 20260504191545 | 77 | 98 | 1.0 | 4.0 | 0.00 | 0.03 | 0.03 | 55 | 1009.8 |
| 20260504190051 | 77 | 85 | 1.0 | 6.0 | 0.00 | 0.03 | 0.03 | 54 | 1009.9 |
| 20260504184544 | 77 | 106 | 2.0 | 5.0 | 0.00 | 0.03 | 0.03 | 57 | 1010.2 |
| 20260504183055 | 76 | 80 | 3.0 | 5.0 | 0.00 | 0.03 | 0.03 | 54 | 1010.2 |
| 20260504181545 | 75 | 88 | 2.0 | 4.0 | 0.00 | 0.03 | 0.03 | 56 | 1010.2 |
| 20260504180117 | 74 | 86 | 2.0 | 4.0 | 0.00 | 0.03 | 0.03 | 56 | 1010.1 |
| 20260504174552 | 76 | 78 | 2.0 | 5.0 | 0.00 | 0.03 | 0.03 | 56 | 1010.1 |
| 20260504173052 | 75 | 83 | 2.0 | 5.0 | 0.00 | 0.03 | 0.03 | 55 | 1010.1 |
| 20260504171552 | 74 | 81 | 2.0 | 5.0 | 0.00 | 0.03 | 0.03 | 57 | 1010.3 |